Weather History for Tehachapi, CA

Change the Weather History Date:

Friday, December 7, 2012

  Actual Average Record
Temperature  
Mean Temperature 48 °F -  
Max Temperature 57 °F 53 °F 57 °F (2012)
Min Temperature 39 °F 31 °F 24 °F (2013)
Degree Days  
Heating Degree Days 17    
Moisture  
Dew Point 43 °F    
Average Humidity 93    
Maximum Humidity 100    
Minimum Humidity 55    
Precipitation  
Precipitation 0.00 in - - ()
Sea Level Pressure  
Sea Level Pressure 30.09 in    
Wind  
Wind Speed 7 mph (NW)    
Max Wind Speed 16 mph    
Max Gust Speed -    
Visibility 5 miles    
Events Fog    
Averages and records for this station are not official NWS values.
T = Trace of Precipitation, MM = Missing Value Source: NWS Daily Summary

Daily Weather History Graph

Daily Weather History Graph

Search for Another Location

Airport:

Trip Planner

Search our weather history database for the weather conditions in past years. The results will help you decide how hot, cold, wet, or windy it might be!

Date:

Astronomy

Dec. 07, 2012 Rise Set
Actual Time 6:49 AM PST 4:41 PM PST
Civil Twilight 6:21 AM PST 5:09 PM PST
Nautical Twilight 5:49 AM PST 5:41 PM PST
Astronomical Twilight 5:18 AM PST 6:12 PM PST
Moon 12:25 AM PST (12/7) 12:30 PM PST (12/7)
Length of Visible Light 10h 48m
Length of Day
9h 52m
Last Quarter, 37% of the Moon is Illuminated
Dec 7
Last Quarter
Dec 13
New
Dec 19
First Quarter
Dec 28
Full
Jan 4
Last Quarter

Hourly Weather History & Observations

Time (PST) Temp. Windchill Dew Point Humidity Pressure Visibility Wind Dir Wind Speed Gust Speed Precip Events Conditions
12:15 AM 46.4 °F 43.5 °F 46.4 °F 100% 30.10 in 3.0 mi WNW 5.8 mph - N/A   Overcast
12:35 AM 46.4 °F 42.4 °F 46.4 °F 100% 30.09 in 3.0 mi NW 8.1 mph - N/A   Overcast
12:55 AM 46.4 °F 42.9 °F 46.4 °F 100% 30.09 in 3.0 mi WNW 6.9 mph - N/A   Overcast
1:15 AM 44.6 °F 41.4 °F 44.6 °F 100% 30.08 in 3.0 mi NW 5.8 mph - N/A   Overcast
1:35 AM 44.6 °F 40.7 °F 44.6 °F 100% 30.08 in 3.0 mi NW 6.9 mph - N/A   Overcast
1:55 AM 44.6 °F 40.2 °F 44.6 °F 100% 30.08 in 4.0 mi NW 8.1 mph - N/A   Overcast
2:15 AM 44.6 °F 40.2 °F 44.6 °F 100% 30.09 in 3.0 mi WNW 8.1 mph - N/A   Overcast
2:35 AM 44.6 °F 39.2 °F 44.6 °F 100% 30.09 in 3.0 mi WNW 10.4 mph - N/A   Overcast
3:15 AM 44.6 °F 42.2 °F 44.6 °F 100% 30.08 in 4.0 mi NW 4.6 mph - N/A   Overcast
3:35 AM 44.6 °F 41.4 °F 44.6 °F 100% 30.07 in 4.0 mi WNW 5.8 mph - N/A   Overcast
3:55 AM 44.6 °F 40.2 °F 44.6 °F 100% 30.08 in 3.0 mi WNW 8.1 mph - N/A   Overcast
4:15 AM 44.6 °F 41.4 °F 44.6 °F 100% 30.07 in 5.0 mi WNW 5.8 mph - N/A   Overcast
4:35 AM 44.6 °F 42.2 °F 44.6 °F 100% 30.07 in 5.0 mi WNW 4.6 mph - N/A   Overcast
4:55 AM 44.6 °F 40.2 °F 44.6 °F 100% 30.08 in 4.0 mi WNW 8.1 mph - N/A   Overcast
5:15 AM 44.6 °F 41.4 °F 44.6 °F 100% 30.08 in 4.0 mi WNW 5.8 mph - N/A   Overcast
5:35 AM 44.6 °F 42.2 °F 44.6 °F 100% 30.08 in 5.0 mi NW 4.6 mph - N/A   Overcast
5:55 AM 44.6 °F - 44.6 °F 100% 30.08 in 5.0 mi Calm Calm - N/A   Overcast
6:15 AM 44.6 °F 43.1 °F 44.6 °F 100% 30.09 in 5.0 mi NW 3.5 mph - N/A   Overcast
6:35 AM 44.6 °F 42.2 °F 44.6 °F 100% 30.09 in 3.0 mi West 4.6 mph - N/A   Overcast
6:55 AM 44.6 °F 43.1 °F 44.6 °F 100% 30.09 in 3.0 mi NW 3.5 mph - N/A   Overcast
7:15 AM 44.6 °F 41.4 °F 44.6 °F 100% 30.10 in 5.0 mi WNW 5.8 mph - N/A   Overcast
7:35 AM 44.6 °F 41.4 °F 44.6 °F 100% 30.11 in 4.0 mi West 5.8 mph - N/A   Overcast
7:55 AM 44.6 °F 40.2 °F 44.6 °F 100% 30.11 in 3.0 mi WNW 8.1 mph - N/A   Overcast
8:15 AM 44.6 °F 40.7 °F 44.6 °F 100% 30.11 in 3.0 mi WNW 6.9 mph - N/A   Overcast
8:35 AM 46.4 °F 43.5 °F 44.6 °F 93% 30.12 in 10.0 mi NW 5.8 mph - N/A   Overcast
8:55 AM 46.4 °F 42.9 °F 41.0 °F 81% 30.13 in 10.0 mi NW 6.9 mph - N/A   Overcast
9:15 AM 48.2 °F - 42.8 °F 82% 30.13 in 10.0 mi NNW 8.1 mph - N/A   Overcast
9:35 AM 46.4 °F 43.5 °F 41.0 °F 81% 30.14 in 10.0 mi NW 5.8 mph - N/A   Overcast
9:55 AM 48.2 °F - 41.0 °F 76% 30.14 in 10.0 mi NW 6.9 mph - N/A   Mostly Cloudy
10:15 AM 48.2 °F - 41.0 °F 76% 30.13 in 9.0 mi NW 4.6 mph - N/A   Partly Cloudy
10:35 AM 50.0 °F - 41.0 °F 71% 30.12 in 10.0 mi WNW 4.6 mph - N/A   Clear
10:55 AM 50.0 °F - 42.8 °F 76% 30.12 in 10.0 mi West 5.8 mph - N/A   Clear
11:15 AM 53.6 °F - 41.0 °F 62% 30.11 in 10.0 mi North 3.5 mph - N/A   Clear
11:35 AM 53.6 °F - 41.0 °F 62% 30.10 in 10.0 mi Calm Calm - N/A   Clear
11:55 AM 55.4 °F - 41.0 °F 58% 30.08 in 10.0 mi Calm Calm - N/A   Clear
12:15 PM 57.2 °F - 41.0 °F 55% 30.08 in 10.0 mi NW 10.4 mph - N/A   Clear
12:35 PM 55.4 °F - 44.6 °F 67% 30.07 in 9.0 mi NW 13.8 mph - N/A   Clear
12:55 PM 55.4 °F - 44.6 °F 67% 30.07 in 10.0 mi NW 13.8 mph - N/A   Clear
1:15 PM 53.6 °F - 44.6 °F 72% 30.06 in 10.0 mi NW 15.0 mph - N/A   Clear
1:35 PM 50.0 °F - 44.6 °F 82% 30.06 in 9.0 mi NW 16.1 mph - N/A   Clear
1:55 PM 50.0 °F - 44.6 °F 82% 30.06 in 9.0 mi NW 13.8 mph - N/A   Scattered Clouds
2:15 PM 48.2 °F - 44.6 °F 87% 30.06 in 6.0 mi NW 13.8 mph - N/A   Mostly Cloudy
2:35 PM 46.4 °F 41.5 °F 44.6 °F 93% 30.06 in 3.0 mi NW 10.4 mph - N/A   Overcast
2:55 PM 46.4 °F 40.7 °F 44.6 °F 93% 30.07 in 1.0 mi NW 12.7 mph - N/A   Overcast
3:15 PM 46.4 °F 41.1 °F 44.6 °F 93% 30.07 in 1.5 mi NW 11.5 mph - N/A   Overcast
3:35 PM 46.4 °F 42.4 °F 44.6 °F 93% 30.07 in 1.0 mi NNW 8.1 mph - N/A   Overcast
3:55 PM 46.4 °F 41.9 °F 44.6 °F 93% 30.07 in 1.0 mi NW 9.2 mph - N/A   Overcast
4:15 PM 44.6 °F 39.7 °F 44.6 °F 100% 30.07 in 1.8 mi NW 9.2 mph - N/A   Overcast
4:35 PM 44.6 °F 39.7 °F 44.6 °F 100% 30.07 in 2.0 mi WNW 9.2 mph - N/A   Overcast
4:55 PM 44.6 °F 39.7 °F 44.6 °F 100% 30.08 in 1.5 mi NW 9.2 mph - N/A   Overcast
5:15 PM 44.6 °F 40.7 °F 44.6 °F 100% 30.08 in 0.8 mi WNW 6.9 mph - N/A   Overcast
5:35 PM 44.6 °F 40.2 °F 44.6 °F 100% 30.08 in 0.8 mi WNW 8.1 mph - N/A   Overcast
5:55 PM 44.6 °F 39.7 °F 44.6 °F 100% 30.09 in 2.5 mi NW 9.2 mph - N/A   Overcast
6:15 PM 44.6 °F 40.7 °F 44.6 °F 100% 30.09 in 2.5 mi WNW 6.9 mph - N/A   Overcast
6:55 PM 42.8 °F 39.3 °F 42.8 °F 100% 30.09 in 0.5 mi NW 5.8 mph - N/A Fog Fog
7:15 PM 42.8 °F 38.0 °F 42.8 °F 100% 30.10 in 1.0 mi NW 8.1 mph - N/A   Overcast
7:35 PM 42.8 °F 38.0 °F 42.8 °F 100% 30.10 in 3.0 mi NW 8.1 mph - N/A   Overcast
7:55 PM 42.8 °F 39.3 °F 42.8 °F 100% 30.10 in 3.0 mi NW 5.8 mph - N/A   Overcast
8:35 PM 42.8 °F - 42.8 °F 100% 30.11 in 4.0 mi Calm Calm - N/A   Overcast
8:55 PM 42.8 °F - 42.8 °F 100% 30.10 in 4.0 mi Calm Calm - N/A   Overcast
9:15 PM 42.8 °F - 42.8 °F 100% 30.10 in 4.0 mi Calm Calm - N/A   Overcast
9:35 PM 41.0 °F - 41.0 °F 100% 30.09 in 5.0 mi Calm Calm - N/A   Overcast
9:55 PM 41.0 °F 39.0 °F 41.0 °F 100% 30.09 in 5.0 mi SSE 3.5 mph - N/A   Overcast
10:15 PM 41.0 °F - 41.0 °F 100% 30.09 in 5.0 mi Calm Calm - N/A   Overcast
10:35 PM 41.0 °F - 41.0 °F 100% 30.09 in 4.0 mi Calm Calm - N/A   Overcast
10:55 PM 41.0 °F - 41.0 °F 100% 30.09 in 3.0 mi Calm Calm - N/A   Overcast
11:15 PM 39.2 °F - 39.2 °F 100% 30.09 in 2.5 mi Calm Calm - N/A   Overcast
11:35 PM 39.2 °F - 39.2 °F 100% 30.08 in 2.5 mi Calm Calm - N/A   Overcast
11:55 PM 39.2 °F 37.0 °F 39.2 °F 100% 30.08 in 2.0 mi NNE 3.5 mph - N/A   Overcast